Back to catalog

STARLINK-34878

AliveCommunicationsVLEO
NORAD 65334·PAYLOAD·🇺🇸 United States

Launched Aug 27, 2025 from Cape Canaveral Space Force Station

Loading…

Next Passes (next 24 hours)

TLE

FreshSource: CelesTrak SupGP

Epoch: Sep 14, 2026, 15:26 UTC

1 65334C 25189M   26257.64354167 -.00066602  00000+0 -21415-2 0  2577
2 65334  53.1589  47.9195 0001113  89.9391 238.9151 15.31739899    19

Track STARLINK-34878 in real time with AllMySat

Download on the App Store